Weather History for Baker, MT

Change the Weather History Date:

Wednesday, January 18, 2012

  Actual Average Record
Temperature  
Mean Temperature 5 °F -  
Max Temperature 23 °F 22 °F 42 °F (2000)
Min Temperature -13 °F 2 °F -13 °F (2002)
Degree Days  
Heating Degree Days 60    
Moisture  
Dew Point -14 °F    
Average Humidity 72    
Maximum Humidity 85    
Minimum Humidity 42    
Precipitation  
Precipitation 0.00 in - - ()
Sea Level Pressure  
Sea Level Pressure 29.93 in    
Wind  
Wind Speed 15 mph (NW)    
Max Wind Speed 24 mph    
Max Gust Speed 31 mph    
Visibility 4 miles    
Events Fog , Snow    
Averages and records for this station are not official NWS values.
T = Trace of Precipitation, MM = Missing Value Source: NWS Daily Summary

Daily Weather History Graph

Daily Weather History Graph

Search for Another Location

Airport:

Trip Planner

Search our weather history database for the weather conditions in past years. The results will help you decide how hot, cold, wet, or windy it might be!

Date:

Astronomy

Jan. 18, 2012 Rise Set
Actual Time 7:34 AM MST 4:40 PM MST
Civil Twilight 7:00 AM MST 5:14 PM MST
Nautical Twilight 6:23 AM MST 5:51 PM MST
Astronomical Twilight 5:47 AM MST 6:27 PM MST
Moon 3:08 AM MST 12:19 PM MST
Length of Visible Light 10h 13m
Length of Day
9h 06m
Waning Crescent, 24% of the Moon is Illuminated
Jan 18
Waning Crescent
Jan 23
New
Jan 30
First Quarter
Feb 7
Full
Feb 14
Last Quarter

Hourly Weather History & Observations

Time (MST) Temp. Windchill Dew Point Humidity Pressure Visibility Wind Dir Wind Speed Gust Speed Precip Events Conditions
12:51 AM 23.0 °F 10.1 °F 3.0 °F 42% 29.73 in 10.0 mi SW 15.0 mph - N/A   Mostly Cloudy
1:51 AM 21.9 °F 11.0 °F 3.0 °F 44% 29.70 in 10.0 mi SW 10.4 mph - N/A   Mostly Cloudy
3:16 AM 12.2 °F -5.8 °F 1.4 °F 62% 29.63 in 10.0 mi NNW 19.6 mph 24.2 mph N/A   Mostly Cloudy
3:51 AM 1.9 °F -18.7 °F -2.0 °F 83% 29.80 in 10.0 mi NW 18.4 mph 24.2 mph N/A   Scattered Clouds
4:34 AM 1.4 °F -19.9 °F -2.2 °F 85% 29.70 in 7.0 mi NW 19.6 mph 26.5 mph N/A   Overcast
4:51 AM 1.0 °F -20.9 °F -2.9 °F 83% 29.87 in 4.0 mi NNW 20.7 mph 27.6 mph 0.00 in Snow Light Snow
4:55 AM 1.4 °F -20.5 °F -2.2 °F 85% 29.71 in 1.8 mi NW 20.7 mph 27.6 mph 0.00 in Snow Light Snow
5:04 AM -0.4 °F -21.7 °F -4.0 °F 85% 29.71 in 1.2 mi NNW 18.4 mph - 0.00 in Snow Light Snow
5:16 AM -0.4 °F -21.7 °F -5.8 °F 78% 29.73 in 1.2 mi NW 18.4 mph 28.8 mph 0.00 in Snow Light Snow
5:24 AM -0.4 °F -22.8 °F -7.6 °F 72% 29.74 in 3.0 mi NW 20.7 mph 29.9 mph 0.00 in Snow Light Snow
5:33 AM -2.2 °F -26.7 °F -5.8 °F 85% 29.76 in 1.8 mi WNW 24.2 mph 31.1 mph 0.00 in Snow Light Snow
5:38 AM -2.2 °F -25.2 °F -7.6 °F 78% 29.75 in 0.8 mi NW 20.7 mph 31.1 mph 0.00 in Snow Light Snow
5:51 AM -4.0 °F -23.7 °F -8.0 °F 83% 29.92 in 0.5 mi WNW 13.8 mph 26.5 mph 0.00 in Fog , Snow Snow
5:56 AM -4.0 °F -28.6 °F -7.6 °F 85% 29.77 in 0.8 mi NW 23.0 mph 27.6 mph 0.00 in Snow Light Snow
6:02 AM -4.0 °F -27.0 °F -9.4 °F 78% 29.79 in 1.8 mi NW 19.6 mph 28.8 mph 0.00 in Snow Light Snow
6:07 AM -4.0 °F -25.2 °F -9.4 °F 78% 29.79 in 2.5 mi WNW 16.1 mph 25.3 mph 0.00 in Snow Light Snow
6:12 AM -5.8 °F -28.8 °F -9.4 °F 84% 29.80 in 3.0 mi WNW 18.4 mph 26.5 mph 0.00 in Snow Light Snow
6:19 AM -5.8 °F -29.4 °F -11.2 °F 77% 29.81 in 2.0 mi NW 19.6 mph 28.8 mph 0.00 in Snow Light Snow
6:24 AM -5.8 °F -28.8 °F -11.2 °F 77% 29.82 in 2.0 mi NW 18.4 mph 28.8 mph 0.00 in Snow Light Snow
6:33 AM -5.8 °F -28.8 °F -11.2 °F 77% 29.83 in 3.0 mi NW 18.4 mph 28.8 mph 0.00 in Snow Light Snow
6:51 AM -7.1 °F -30.4 °F -11.9 °F 79% 30.00 in 7.0 mi NW 18.4 mph - 0.00 in   Overcast
7:20 AM -7.6 °F -31.1 °F -14.8 °F 71% 29.86 in 9.0 mi NW 18.4 mph - N/A   Mostly Cloudy
7:51 AM -11.0 °F -35.6 °F -16.1 °F 78% 30.06 in 9.0 mi WNW 18.4 mph - N/A   Partly Cloudy
8:51 AM -11.9 °F -35.4 °F -18.0 °F 74% 30.10 in 10.0 mi NW 16.1 mph - N/A   Partly Cloudy
9:25 AM -11.2 °F -36.4 °F -18.4 °F 70% 29.94 in 7.0 mi NW 19.6 mph - N/A   Partly Cloudy
9:59 AM -11.2 °F -33.7 °F -18.4 °F 70% 29.95 in 5.0 mi NW 15.0 mph - N/A   Haze
10:51 AM -11.0 °F -34.2 °F -18.0 °F 71% 30.13 in 10.0 mi WNW 16.1 mph - N/A   Clear
11:04 AM -11.2 °F -34.4 °F -18.4 °F 70% 29.94 in 6.0 mi WNW 16.1 mph - N/A   Haze
11:12 AM -9.4 °F -32.1 °F -18.4 °F 65% 29.94 in 10.0 mi WNW 16.1 mph - N/A   Scattered Clouds
11:51 AM -9.9 °F -32.8 °F -18.0 °F 68% 30.11 in 10.0 mi WNW 16.1 mph - N/A   Partly Cloudy
12:51 PM -9.9 °F -31.3 °F -18.9 °F 65% 30.09 in 10.0 mi NW 13.8 mph - N/A   Overcast
1:51 PM -9.9 °F -32.1 °F -18.9 °F 65% 30.10 in 4.0 mi WNW 15.0 mph 20.7 mph N/A   Haze
2:03 PM -9.4 °F -30.6 °F -18.4 °F 65% 29.92 in 2.0 mi WNW 13.8 mph - 0.00 in Snow Light Snow
2:11 PM -9.4 °F -30.6 °F -18.4 °F 65% 29.91 in 1.8 mi NW 13.8 mph 18.4 mph 0.00 in Snow Light Snow
2:23 PM -9.4 °F -32.8 °F -18.4 °F 65% 29.92 in 1.5 mi WNW 17.3 mph - 0.00 in Snow Light Snow
2:51 PM -9.9 °F -32.1 °F -18.0 °F 68% 30.10 in 1.0 mi NW 15.0 mph - 0.00 in Snow Light Snow
3:21 PM -9.4 °F -28.9 °F -18.4 °F 65% 29.92 in 2.0 mi WNW 11.5 mph - 0.00 in Snow Light Snow
3:41 PM -9.4 °F -28.9 °F -16.6 °F 71% 29.91 in 1.8 mi NW 11.5 mph - 0.00 in Snow Light Snow
3:48 PM -9.4 °F -29.8 °F -18.4 °F 65% 29.91 in 2.0 mi NW 12.7 mph - 0.00 in Snow Light Snow
3:51 PM -9.9 °F -30.5 °F -18.0 °F 68% 30.13 in 2.0 mi NW 12.7 mph - 0.00 in Snow Light Snow
4:18 PM -9.4 °F -28.9 °F -18.4 °F 65% 29.92 in 3.0 mi NW 11.5 mph - 0.00 in   Haze
4:25 PM -9.4 °F -27.9 °F -16.6 °F 71% 29.92 in 1.8 mi NNW 10.4 mph - 0.00 in Snow Light Snow
4:48 PM -9.4 °F -30.6 °F -16.6 °F 71% 29.92 in 3.0 mi NNW 13.8 mph - 0.00 in Snow Light Snow
4:51 PM -9.9 °F -29.6 °F -17.0 °F 71% 30.15 in 3.0 mi NNW 11.5 mph - 0.00 in Snow Light Snow
5:08 PM -11.2 °F -32.1 °F -18.4 °F 70% 29.92 in 2.0 mi NNW 12.7 mph - 0.00 in Snow Light Snow
5:13 PM -11.2 °F -32.9 °F -18.4 °F 70% 29.93 in 1.8 mi NW 13.8 mph - 0.00 in Snow Light Snow
5:51 PM -11.0 °F -30.9 °F -17.0 °F 75% 30.17 in 1.8 mi NNW 11.5 mph - 0.00 in Snow Light Snow
5:56 PM -11.2 °F -32.1 °F -18.4 °F 70% 29.93 in 2.5 mi North 12.7 mph - 0.00 in Snow Light Snow
6:06 PM -11.2 °F -32.1 °F -18.4 °F 70% 29.93 in 3.0 mi NNW 12.7 mph - 0.00 in Snow Light Snow
6:26 PM -11.2 °F -32.1 °F -18.4 °F 70% 29.94 in 2.5 mi NNW 12.7 mph - 0.00 in Snow Light Snow
6:34 PM -11.2 °F -32.1 °F -18.4 °F 70% 29.94 in 2.0 mi NNW 12.7 mph - 0.00 in Snow Light Snow
6:43 PM -11.2 °F -31.1 °F -18.4 °F 70% 29.93 in 1.8 mi NNW 11.5 mph - 0.00 in Snow Light Snow
6:51 PM -11.9 °F -29.9 °F -18.0 °F 74% 30.19 in 1.5 mi North 9.2 mph - 0.00 in Snow Light Snow
7:24 PM -13.0 °F -33.4 °F -20.2 °F 70% 29.93 in 2.0 mi NNW 11.5 mph - 0.00 in Snow Light Snow
7:30 PM -13.0 °F -30.0 °F -20.2 °F 70% 29.93 in 2.5 mi NNW 8.1 mph - 0.00 in Snow Light Snow
7:48 PM -13.0 °F -31.3 °F -18.4 °F 77% 29.93 in 2.0 mi NW 9.2 mph - 0.00 in Snow Light Snow
7:51 PM -13.0 °F -31.3 °F -18.9 °F 75% 30.19 in 2.0 mi NW 9.2 mph - 0.00 in Snow Light Snow
8:01 PM -13.0 °F -28.6 °F -18.4 °F 77% 29.93 in 2.5 mi NW 6.9 mph - 0.00 in Snow Light Snow
8:07 PM -13.0 °F -30.0 °F -18.4 °F 77% 29.94 in 3.0 mi NW 8.1 mph - 0.00 in Snow Light Snow
8:51 PM -13.0 °F -27.0 °F -20.0 °F 71% 30.19 in 7.0 mi NW 5.8 mph - 0.00 in   Overcast
9:17 PM -11.2 °F -23.0 °F -18.4 °F 70% 29.92 in 2.5 mi NW 4.6 mph - 0.00 in Snow Light Snow
9:51 PM -11.9 °F -27.3 °F -18.9 °F 71% 30.19 in 2.5 mi NW 6.9 mph - 0.00 in Snow Light Snow
10:26 PM -11.2 °F -24.8 °F -18.4 °F 70% 29.93 in 3.0 mi WNW 5.8 mph - 0.00 in Snow Light Snow
10:51 PM -11.9 °F -25.7 °F -18.9 °F 71% 30.20 in 4.0 mi NW 5.8 mph - 0.00 in Snow Light Snow
11:51 PM -11.9 °F - -18.0 °F 74% 30.17 in 1.5 mi Calm Calm - 0.00 in Snow Light Snow